Inquirer Daily News

Weather

Get conditions and forecasts for any City, State, ZIP code or Country:  
Northeast Philadelphia, PA
on Thursday, November 8, 2012

Thursday
Previous Day Next Day
Daily Summary
 ActualAverage (KTTN)Record (KTTN)
Temperature
Mean Temperature °F 48°F  
Max Temperature 50°F 58°F 76°F (1975)
Min Temperature 33°F 39°F 22°F (1993)
Degree Days
Heating Degree Days 24 17  
Month to date heating degree days 128  
Since 1 July heating degree days 525  
Cooling Degree Days 0 0  
Month to date cooling degree days 0  
Year to date cooling degree days 965  
Moisture
Dew Point 22°F   
Average Humidity 48    
Maximum Humidity 87    
Minimum Humidity 26    
Precipitation
Precipitation 0.01 in 0.12 in 2.85 in (1972)
Month to date precipitation 0.85  
Year to date precipitation 40.28  
Wind
Wind Speed 13 mph   
Max Wind Speed 21 mph   
Max Gust Speed 34 mph   
Visibility 10 miles   
Events Snow   

Key: T is trace of precipitation, MM is missing value
Source: NWS Daily Summary
Time(EST)TemperatureDew PointHumidity Pressure Visibility Wind DirectionWind SpeedGust SpeedPrecipitationEvents Conditions
12:03 AM 33.8°F 30.2°F 87% 29.83 in 3.0 miles North 12.7 mph 24.2 mph 0.00 in Snow Light Snow
12:54 AM 36.0°F 30.0°F 79% 29.83 in 10.0 miles North 8.1 mph - 0.01 in   Overcast
1:54 AM 36.0°F 30.0°F 79% 29.82 in 10.0 miles NNW 9.2 mph - N/A   Overcast
2:54 AM 37.9°F 27.0°F 65% 29.81 in 10.0 miles NNW 10.4 mph - N/A   Overcast
3:54 AM 37.9°F 26.1°F 62% 29.81 in 10.0 miles NNW 13.8 mph - N/A   Overcast
4:54 AM 39.0°F 23.0°F 53% 29.81 in 10.0 miles NW 13.8 mph 23.0 mph N/A   Overcast
5:54 AM 39.0°F 21.9°F 50% 29.81 in 10.0 miles NW 9.2 mph - N/A   Overcast
6:54 AM 39.0°F 21.0°F 49% 29.83 in 10.0 miles NW 9.2 mph - N/A   Overcast
7:54 AM 39.9°F 21.9°F 49% 29.85 in 10.0 miles NNW 8.1 mph - N/A   Partly Cloudy
8:54 AM 41.0°F 21.9°F 47% 29.86 in 10.0 miles NNW 16.1 mph 19.6 mph N/A   Clear
9:54 AM 42.1°F 21.9°F 45% 29.86 in 10.0 miles NNW 13.8 mph 23.0 mph N/A   Clear
10:54 AM 45.0°F 21.0°F 39% 29.86 in 10.0 miles North 16.1 mph 27.6 mph N/A   Scattered Clouds
11:54 AM 46.4°F 19.4°F 34% 29.85 in 10.0 miles NNW 20.7 mph 29.9 mph N/A   Overcast
12:54 PM 46.0°F 19.0°F 34% 29.83 in 10.0 miles NNW 20.7 mph 32.2 mph N/A   Mostly Cloudy
1:54 PM 46.0°F 17.1°F 31% 29.83 in 10.0 miles NNW 17.3 mph 31.1 mph N/A   Scattered Clouds
2:54 PM 50.0°F 16.0°F 26% 29.83 in 10.0 miles NNW 17.3 mph 32.2 mph N/A   Mostly Cloudy
3:54 PM 50.0°F 16.0°F 26% 29.84 in 10.0 miles NNW 16.1 mph 24.2 mph N/A   Scattered Clouds
4:54 PM 48.0°F 18.0°F 30% 29.86 in 10.0 miles NNW 12.7 mph 21.9 mph N/A   Clear
5:54 PM 46.0°F 19.0°F 34% 29.89 in 10.0 miles NNW 10.4 mph - N/A   Clear
6:54 PM 44.1°F 19.9°F 38% 29.92 in 10.0 miles NNW 20.7 mph 34.5 mph N/A   Clear
7:54 PM 43.0°F 19.9°F 40% 29.94 in 10.0 miles NNW 11.5 mph 20.7 mph N/A   Clear
8:54 PM 42.1°F 21.0°F 43% 29.96 in 10.0 miles NNW 17.3 mph 24.2 mph N/A   Clear
9:54 PM 39.9°F 21.0°F 47% 29.98 in 10.0 miles NNW 15.0 mph 23.0 mph N/A   Clear
10:54 PM 37.9°F 21.9°F 53% 29.99 in 10.0 miles NNW 13.8 mph 21.9 mph N/A   Clear
11:54 PM 37.9°F 21.9°F 53% 30.00 in 10.0 miles NNW 12.7 mph - N/A   Clear
Astronomy
Sunrise:06:37 AM (EST) Moon Rise:12:30 AM (EST)11/8
Sunset:04:49 PM (EST) Moon Set:01:29 PM (EST)11/8
Moon Phase
Nov. 08 Nov. 13 Nov. 20 Nov. 28 Dec. 06

Copyright © 2014 The Weather Underground, Inc.